IGO376 VOHS-VECC

Flight info

Callsign IGO376
Flight time 1h 58m
Altitude 35000
Route VIRKO7 SAPNU W41 KAKID KAKID2G
Aircraft A21N/M-SDE2E3FGHIRWXY/LB1

Departure

Time 2026-05-06 07:48
Airport Rajiv Gandhi International Airport (VOHS)

Arrival

Time 2026-05-06 09:46
Airport Netaji Subhash Chandra Bose International Airport (VECC)
Time Latitude Longitude Altitude Speed Heading
2026-05-06 06:49 17.23419 78.42961 1998 ft 0 kts 356°
2026-05-06 06:53 17.23418 78.42961 1998 ft 0 kts 356°
2026-05-06 07:11 17.23419 78.42961 1999 ft 0 kts 356°
2026-05-06 07:28 17.23418 78.42961 1998 ft 0 kts 356°
2026-05-06 07:36 17.23414 78.42961 1997 ft 3 kts 356°
2026-05-06 07:36 17.23387 78.42963 1995 ft 4 kts 356°
2026-05-06 07:36 17.23362 78.42965 1997 ft 3 kts 356°
2026-05-06 07:37 17.23340 78.42970 1996 ft 4 kts 309°
2026-05-06 07:37 17.23332 78.42993 1995 ft 4 kts 269°
2026-05-06 07:37 17.23332 78.43000 1998 ft 1 kts 269°
2026-05-06 07:40 17.23332 78.42999 1998 ft 0 kts 269°
2026-05-06 07:40 17.23332 78.42991 1998 ft 2 kts 269°
2026-05-06 07:40 17.23332 78.42971 1998 ft 4 kts 269°
2026-05-06 07:40 17.23331 78.42935 1998 ft 6 kts 269°
2026-05-06 07:41 17.23331 78.42878 1998 ft 9 kts 270°
2026-05-06 07:41 17.23330 78.42805 1998 ft 11 kts 269°
2026-05-06 07:41 17.23316 78.42740 1998 ft 8 kts 218°
2026-05-06 07:41 17.23259 78.42728 1997 ft 10 kts 185°
2026-05-06 07:42 17.23186 78.42728 1996 ft 4 kts 178°
2026-05-06 07:42 17.23185 78.42728 1997 ft 1 kts 179°
2026-05-06 07:42 17.23166 78.42729 1997 ft 4 kts 179°
2026-05-06 07:43 17.23120 78.42723 1997 ft 9 kts 199°
2026-05-06 07:43 17.23080 78.42656 1997 ft 13 kts 262°
2026-05-06 07:43 17.23077 78.42545 1998 ft 18 kts 270°
2026-05-06 07:43 17.23080 78.42400 1996 ft 22 kts 264°
2026-05-06 07:44 17.23073 78.42234 1997 ft 21 kts 264°
2026-05-06 07:44 17.23071 78.42088 1997 ft 20 kts 269°
2026-05-06 07:44 17.23073 78.41943 1995 ft 20 kts 272°
2026-05-06 07:44 17.23068 78.41805 1994 ft 17 kts 269°
2026-05-06 07:45 17.23066 78.41693 1995 ft 13 kts 269°
2026-05-06 07:45 17.23066 78.41606 1996 ft 11 kts 269°
2026-05-06 07:45 17.23064 78.41518 1995 ft 14 kts 269°
2026-05-06 07:45 17.23062 78.41408 1994 ft 17 kts 269°
2026-05-06 07:46 17.22994 78.41313 1995 ft 18 kts 207°
2026-05-06 07:46 17.22879 78.41317 1997 ft 16 kts 155°
2026-05-06 07:46 17.22857 78.41385 1998 ft 0 kts 89°
2026-05-06 07:47 17.22857 78.41394 1998 ft 0 kts 89°
2026-05-06 07:47 17.22857 78.41395 1998 ft 0 kts 89°
2026-05-06 07:47 17.22857 78.41476 1998 ft 38 kts 90°
2026-05-06 07:48 17.22866 78.42032 1995 ft 112 kts 89°
2026-05-06 07:48 17.22878 78.43066 1997 ft 168 kts 89°
2026-05-06 07:48 17.22893 78.44402 2241 ft 195 kts 90°
2026-05-06 07:48 17.22911 78.45883 2774 ft 212 kts 89°
2026-05-06 07:49 17.22932 78.47524 2858 ft 237 kts 89°
2026-05-06 07:49 17.22957 78.49348 2818 ft 265 kts 89°
2026-05-06 07:49 17.22987 78.51359 2986 ft 287 kts 89°
2026-05-06 07:49 17.23020 78.53516 3190 ft 306 kts 89°
2026-05-06 07:50 17.23148 78.55798 3414 ft 321 kts 83°
2026-05-06 07:50 17.23506 78.58128 3649 ft 327 kts 79°
2026-05-06 07:50 17.23918 78.60470 4112 ft 328 kts 80°
2026-05-06 07:50 17.24311 78.62813 4580 ft 322 kts 81°
2026-05-06 07:51 17.24745 78.65056 5588 ft 305 kts 76°
2026-05-06 07:51 17.25226 78.67140 6788 ft 287 kts 76°
2026-05-06 07:51 17.25693 78.69157 7629 ft 283 kts 76°
2026-05-06 07:51 17.26132 78.71160 8302 ft 284 kts 76°
2026-05-06 07:52 17.26549 78.73188 8918 ft 287 kts 77°
2026-05-06 07:52 17.26951 78.75246 9532 ft 290 kts 77°
2026-05-06 07:52 17.27342 78.77321 10115 ft 292 kts 77°
2026-05-06 07:52 17.27730 78.79423 10635 ft 298 kts 77°
2026-05-06 07:53 17.28141 78.81656 10760 ft 318 kts 78°
2026-05-06 07:53 17.28564 78.83959 10880 ft 337 kts 78°
2026-05-06 07:53 17.29019 78.86431 11118 ft 350 kts 78°
2026-05-06 07:53 17.29480 78.88952 11583 ft 356 kts 78°
2026-05-06 07:54 17.29948 78.91513 12095 ft 361 kts 78°
2026-05-06 07:54 17.30430 78.94147 12589 ft 366 kts 78°
2026-05-06 07:54 17.30905 78.96742 13101 ft 370 kts 78°
2026-05-06 07:54 17.31389 78.99401 13611 ft 374 kts 78°
2026-05-06 07:55 17.31878 79.02097 14096 ft 378 kts 79°
2026-05-06 07:55 17.32371 79.04810 14554 ft 381 kts 79°
2026-05-06 07:55 17.32869 79.07537 15041 ft 384 kts 79°
2026-05-06 07:55 17.33373 79.10298 15504 ft 388 kts 79°
2026-05-06 07:56 17.33880 79.13082 15954 ft 391 kts 79°
2026-05-06 07:56 17.34390 79.15896 16405 ft 395 kts 79°
2026-05-06 07:56 17.34906 79.18732 16851 ft 399 kts 79°
2026-05-06 07:56 17.35427 79.21591 17291 ft 402 kts 79°
2026-05-06 07:57 17.35933 79.24366 18637 ft 400 kts 79°
2026-05-06 07:57 17.36459 79.27269 18934 ft 413 kts 76°
2026-05-06 07:57 17.36990 79.30173 18379 ft 424 kts 85°
2026-05-06 07:57 17.37468 79.33193 18865 ft 419 kts 81°
2026-05-06 07:58 17.37986 79.36190 19306 ft 419 kts 79°
2026-05-06 07:58 17.38360 79.38223 19564 ft 421 kts 79°
2026-05-06 07:58 17.39115 79.42205 20044 ft 423 kts 79°
2026-05-06 07:58 17.39497 79.44213 20256 ft 425 kts 79°
2026-05-06 07:59 17.40070 79.47268 20606 ft 427 kts 79°
2026-05-06 07:59 17.40632 79.50321 20940 ft 430 kts 79°
2026-05-06 07:59 17.41199 79.53454 21254 ft 432 kts 79°
2026-05-06 07:59 17.41755 79.56549 21590 ft 435 kts 79°
2026-05-06 08:00 17.42312 79.59668 21908 ft 437 kts 79°
2026-05-06 08:00 17.42871 79.62803 22216 ft 440 kts 79°
2026-05-06 08:00 17.43436 79.65961 22519 ft 442 kts 79°
2026-05-06 08:00 17.44004 79.69135 22811 ft 444 kts 79°
2026-05-06 08:01 17.44575 79.72321 23100 ft 447 kts 79°
2026-05-06 08:01 17.45154 79.75561 23381 ft 449 kts 79°
2026-05-06 08:01 17.45722 79.78750 23623 ft 451 kts 79°
2026-05-06 08:01 17.46306 79.82030 23860 ft 453 kts 79°
2026-05-06 08:02 17.46882 79.85274 24110 ft 455 kts 79°
2026-05-06 08:02 17.47462 79.88551 24349 ft 457 kts 79°
2026-05-06 08:02 17.48048 79.91857 24596 ft 459 kts 79°
2026-05-06 08:02 17.48630 79.95114 24844 ft 460 kts 79°
2026-05-06 08:03 17.49221 79.98410 25092 ft 462 kts 79°
2026-05-06 08:03 17.49812 80.01721 25337 ft 464 kts 79°
2026-05-06 08:03 17.50410 80.05094 25580 ft 465 kts 79°
2026-05-06 08:03 17.51179 80.08388 25797 ft 467 kts 73°
2026-05-06 08:04 17.52125 80.11649 26033 ft 469 kts 73°
2026-05-06 08:04 17.53073 80.14928 26261 ft 471 kts 73°
2026-05-06 08:04 17.54019 80.18215 26487 ft 473 kts 73°
2026-05-06 08:04 17.54970 80.21531 26708 ft 474 kts 73°
2026-05-06 08:05 17.55922 80.24852 26919 ft 476 kts 73°
2026-05-06 08:05 17.56877 80.28176 27133 ft 478 kts 73°
2026-05-06 08:05 17.57838 80.31514 27360 ft 480 kts 73°
2026-05-06 08:05 17.58803 80.34873 27573 ft 481 kts 73°
2026-05-06 08:06 17.59768 80.38237 27786 ft 483 kts 73°
2026-05-06 08:06 17.60732 80.41603 28002 ft 484 kts 73°
2026-05-06 08:06 17.61704 80.45003 28212 ft 486 kts 73°
2026-05-06 08:06 17.62674 80.48391 28416 ft 487 kts 73°
2026-05-06 08:07 17.63641 80.51765 28610 ft 489 kts 73°
2026-05-06 08:07 17.64630 80.55219 28794 ft 491 kts 73°
2026-05-06 08:07 17.65604 80.58637 28983 ft 492 kts 73°
2026-05-06 08:07 17.66588 80.62097 29166 ft 493 kts 73°
2026-05-06 08:08 17.67571 80.65551 29350 ft 495 kts 73°
2026-05-06 08:08 17.68553 80.69002 29531 ft 496 kts 73°
2026-05-06 08:08 17.69558 80.72532 29717 ft 498 kts 73°
2026-05-06 08:08 17.70550 80.76010 29889 ft 499 kts 73°
2026-05-06 08:09 17.71543 80.79499 30054 ft 500 kts 73°
2026-05-06 08:09 17.72536 80.82996 30226 ft 501 kts 73°
2026-05-06 08:09 17.73532 80.86510 30408 ft 502 kts 73°
2026-05-06 08:09 17.74528 80.90022 30669 ft 501 kts 73°
2026-05-06 08:10 17.75515 80.93507 30918 ft 500 kts 73°
2026-05-06 08:10 17.76508 80.97009 31182 ft 499 kts 73°
2026-05-06 08:10 17.77495 81.00496 31452 ft 498 kts 73°
2026-05-06 08:10 17.78478 81.03972 31718 ft 497 kts 73°
2026-05-06 08:11 17.79448 81.07400 31985 ft 496 kts 73°
2026-05-06 08:11 17.80439 81.10902 32244 ft 495 kts 73°
2026-05-06 08:11 17.81418 81.14372 32516 ft 495 kts 74°
2026-05-06 08:11 17.82392 81.17828 32771 ft 494 kts 73°
2026-05-06 08:12 17.83431 81.21268 33044 ft 493 kts 69°
2026-05-06 08:12 17.84883 81.24520 33286 ft 492 kts 60°
2026-05-06 08:12 17.86583 81.27635 33539 ft 491 kts 59°
2026-05-06 08:12 17.88279 81.30739 33811 ft 491 kts 59°
2026-05-06 08:13 17.89974 81.33847 34043 ft 490 kts 60°
2026-05-06 08:13 17.91658 81.36949 34264 ft 489 kts 60°
2026-05-06 08:13 17.93341 81.40054 34504 ft 488 kts 59°
2026-05-06 08:13 17.95023 81.43155 34730 ft 488 kts 59°
2026-05-06 08:14 17.98369 81.49327 34863 ft 483 kts 59°
2026-05-06 08:14 18.01679 81.55445 34861 ft 481 kts 59°
2026-05-06 08:15 18.04985 81.61567 34859 ft 481 kts 59°
2026-05-06 08:15 18.08289 81.67692 34860 ft 482 kts 59°
2026-05-06 08:16 18.11602 81.73817 34858 ft 482 kts 59°
2026-05-06 08:16 18.14916 81.79940 34857 ft 482 kts 59°
2026-05-06 08:17 18.18200 81.86042 34855 ft 482 kts 60°
2026-05-06 08:17 18.21537 81.92256 34858 ft 483 kts 59°
2026-05-06 08:18 18.24844 81.98404 34860 ft 483 kts 59°
2026-05-06 08:18 18.28151 82.04549 34862 ft 483 kts 59°
2026-05-06 08:19 18.31462 82.10711 34865 ft 483 kts 60°
2026-05-06 08:19 18.34763 82.16874 34872 ft 484 kts 60°
2026-05-06 08:20 18.38070 82.23048 34880 ft 484 kts 59°
2026-05-06 08:20 18.41365 82.29211 34878 ft 484 kts 60°
2026-05-06 08:21 18.44664 82.35391 34887 ft 484 kts 60°
2026-05-06 08:21 18.47965 82.41575 34890 ft 485 kts 60°
2026-05-06 08:22 18.51267 82.47768 34890 ft 485 kts 60°
2026-05-06 08:22 18.54579 82.53966 34902 ft 485 kts 59°
2026-05-06 08:23 18.57859 82.60108 34909 ft 486 kts 60°
2026-05-06 08:23 18.61193 82.66376 34916 ft 486 kts 60°
2026-05-06 08:24 18.64490 82.72597 34918 ft 486 kts 60°
2026-05-06 08:24 18.67791 82.78823 34913 ft 486 kts 60°
2026-05-06 08:25 18.71094 82.85053 34914 ft 487 kts 60°
2026-05-06 08:25 18.74401 82.91283 34911 ft 487 kts 60°
2026-05-06 08:26 18.77703 82.97527 34907 ft 487 kts 60°
2026-05-06 08:26 18.81004 83.03769 34896 ft 487 kts 60°
2026-05-06 08:27 18.84305 83.10015 34896 ft 488 kts 60°
2026-05-06 08:27 18.87607 83.16281 34891 ft 488 kts 60°
2026-05-06 08:28 18.90907 83.22537 34883 ft 488 kts 60°
2026-05-06 08:28 18.94206 83.28814 34880 ft 488 kts 60°
2026-05-06 08:29 18.96968 83.34063 34881 ft 488 kts 60°
2026-05-06 08:29 19.00804 83.41353 34865 ft 488 kts 60°
2026-05-06 08:30 19.04096 83.47632 34853 ft 488 kts 60°
2026-05-06 08:30 19.06853 83.52891 34850 ft 488 kts 60°
2026-05-06 08:31 19.10150 83.59179 34830 ft 489 kts 60°
2026-05-06 08:31 19.13439 83.65469 34831 ft 489 kts 60°
2026-05-06 08:32 19.16733 83.71763 34818 ft 489 kts 60°
2026-05-06 08:32 19.20029 83.78069 34821 ft 490 kts 60°
2026-05-06 08:33 19.23321 83.84378 34836 ft 491 kts 60°
2026-05-06 08:33 19.26620 83.90702 34845 ft 491 kts 60°
2026-05-06 08:34 19.31560 84.00205 34846 ft 491 kts 60°
2026-05-06 08:35 19.34858 84.06542 34849 ft 491 kts 60°
2026-05-06 08:35 19.38145 84.12873 34850 ft 491 kts 60°
2026-05-06 08:36 19.41429 84.19218 34845 ft 491 kts 60°
2026-05-06 08:36 19.44717 84.25552 34838 ft 491 kts 60°
2026-05-06 08:37 19.48004 84.31897 34819 ft 491 kts 60°
2026-05-06 08:37 19.51287 84.38252 34809 ft 492 kts 60°
2026-05-06 08:38 19.54576 84.44610 34796 ft 492 kts 60°
2026-05-06 08:38 19.57861 84.50975 34790 ft 493 kts 60°
2026-05-06 08:39 19.61125 84.57315 34803 ft 493 kts 60°
2026-05-06 08:39 19.64411 84.63706 34794 ft 493 kts 60°
2026-05-06 08:40 19.67700 84.70092 34790 ft 493 kts 60°
2026-05-06 08:40 19.70992 84.76484 34799 ft 494 kts 60°
2026-05-06 08:41 19.74307 84.82919 34804 ft 494 kts 60°
2026-05-06 08:41 19.77591 84.89307 34800 ft 494 kts 60°
2026-05-06 08:42 19.80872 84.95724 34796 ft 494 kts 60°
2026-05-06 08:42 19.84151 85.02133 34808 ft 494 kts 60°
2026-05-06 08:43 19.87439 85.08528 34805 ft 494 kts 60°
2026-05-06 08:43 19.90698 85.14899 34799 ft 494 kts 60°
2026-05-06 08:44 19.93996 85.21372 34806 ft 494 kts 60°
2026-05-06 08:44 19.97274 85.27804 34800 ft 495 kts 60°
2026-05-06 08:45 20.00549 85.34227 34813 ft 495 kts 60°
2026-05-06 08:45 20.03829 85.40670 34799 ft 495 kts 60°
2026-05-06 08:46 20.07108 85.47112 34809 ft 495 kts 60°
2026-05-06 08:46 20.10385 85.53560 34804 ft 496 kts 60°
2026-05-06 08:47 20.13659 85.60020 34808 ft 496 kts 60°
2026-05-06 08:47 20.16932 85.66484 34805 ft 496 kts 60°
2026-05-06 08:48 20.20206 85.72946 34798 ft 496 kts 60°
2026-05-06 08:48 20.23480 85.79408 34795 ft 496 kts 60°
2026-05-06 08:49 20.26104 85.86196 34791 ft 497 kts 70°
2026-05-06 08:49 20.28444 85.93113 34796 ft 497 kts 70°
2026-05-06 08:50 20.30799 86.00045 34802 ft 497 kts 70°
2026-05-06 08:50 20.33148 86.06966 34797 ft 497 kts 70°
2026-05-06 08:51 20.35493 86.13892 34801 ft 497 kts 70°
2026-05-06 08:51 20.37839 86.20829 34798 ft 497 kts 70°
2026-05-06 08:52 20.40173 86.27757 34800 ft 497 kts 70°
2026-05-06 08:52 20.42507 86.34697 34797 ft 497 kts 70°
2026-05-06 08:53 20.44839 86.41648 34797 ft 497 kts 70°
2026-05-06 08:53 20.47166 86.48589 34795 ft 497 kts 70°
2026-05-06 08:54 20.49500 86.55535 34800 ft 497 kts 70°
2026-05-06 08:54 20.51826 86.62476 34795 ft 497 kts 70°
2026-05-06 08:55 20.54155 86.69428 34797 ft 497 kts 70°
2026-05-06 08:55 20.56479 86.76384 34802 ft 497 kts 70°
2026-05-06 08:56 20.58795 86.83341 34800 ft 497 kts 70°
2026-05-06 08:56 20.61103 86.90287 34801 ft 497 kts 70°
2026-05-06 08:57 20.63420 86.97252 34805 ft 497 kts 70°
2026-05-06 08:57 20.65746 87.04207 34803 ft 497 kts 70°
2026-05-06 08:58 20.68128 87.11147 34806 ft 498 kts 69°
2026-05-06 08:58 20.70522 87.18077 34811 ft 498 kts 69°
2026-05-06 08:59 20.72901 87.25022 34811 ft 498 kts 70°
2026-05-06 08:59 20.75265 87.31977 34811 ft 498 kts 70°
2026-05-06 09:00 20.77622 87.38926 34808 ft 498 kts 70°
2026-05-06 09:00 20.79995 87.45872 34808 ft 497 kts 67°
2026-05-06 09:01 20.83422 87.52245 34806 ft 494 kts 49°
2026-05-06 09:01 20.88121 87.57554 34804 ft 492 kts 43°
2026-05-06 09:02 20.92919 87.62800 34793 ft 494 kts 43°
2026-05-06 09:02 20.97717 87.68071 34784 ft 496 kts 43°
2026-05-06 09:03 21.02547 87.73391 34782 ft 498 kts 43°
2026-05-06 09:03 21.07385 87.78721 34788 ft 500 kts 43°
2026-05-06 09:04 21.12229 87.84057 34790 ft 501 kts 43°
2026-05-06 09:04 21.17087 87.89416 34797 ft 501 kts 43°
2026-05-06 09:05 21.21952 87.94776 34803 ft 502 kts 43°
2026-05-06 09:05 21.26814 88.00139 34807 ft 502 kts 43°
2026-05-06 09:06 21.31681 88.05524 34817 ft 503 kts 43°
2026-05-06 09:06 21.36547 88.10918 34820 ft 503 kts 43°
2026-05-06 09:07 21.41414 88.16312 34818 ft 503 kts 43°
2026-05-06 09:07 21.46275 88.21705 34815 ft 503 kts 43°
2026-05-06 09:08 21.51130 88.27097 34816 ft 503 kts 43°
2026-05-06 09:08 21.53757 88.29547 34811 ft 496 kts 28°
2026-05-06 09:08 21.56791 88.31185 34809 ft 485 kts 13°
2026-05-06 09:09 21.63322 88.32410 34794 ft 475 kts
2026-05-06 09:09 21.68781 88.33183 34792 ft 477 kts
2026-05-06 09:10 21.75357 88.34127 34794 ft 478 kts
2026-05-06 09:10 21.81969 88.35077 34797 ft 479 kts
2026-05-06 09:11 21.88564 88.36029 34804 ft 479 kts
2026-05-06 09:11 21.95127 88.36978 34802 ft 479 kts
2026-05-06 09:12 22.01751 88.37929 33862 ft 487 kts
2026-05-06 09:12 22.05150 88.38411 32686 ft 499 kts
2026-05-06 09:12 22.08575 88.38902 32295 ft 491 kts
2026-05-06 09:12 22.11914 88.39389 32164 ft 477 kts
2026-05-06 09:13 22.15152 88.39518 31610 ft 464 kts 348°
2026-05-06 09:13 22.18306 88.38774 30305 ft 466 kts 332°
2026-05-06 09:13 22.21168 88.37125 28791 ft 470 kts 318°
2026-05-06 09:13 22.23587 88.34741 27395 ft 472 kts 305°
2026-05-06 09:14 22.25437 88.31839 26155 ft 470 kts 293°
2026-05-06 09:14 22.26623 88.28596 24811 ft 462 kts 280°
2026-05-06 09:14 22.27001 88.25197 23727 ft 451 kts 266°
2026-05-06 09:14 22.26637 88.21881 22690 ft 439 kts 255°
2026-05-06 09:15 22.25631 88.18815 21525 ft 430 kts 243°
2026-05-06 09:15 22.24040 88.16115 20391 ft 425 kts 231°
2026-05-06 09:15 22.21922 88.13928 19282 ft 422 kts 218°
2026-05-06 09:15 22.19344 88.12435 18229 ft 422 kts 202°
2026-05-06 09:16 22.16474 88.11777 17065 ft 424 kts 186°
2026-05-06 09:16 22.13536 88.12040 15987 ft 425 kts 170°
2026-05-06 09:16 22.10791 88.13206 14962 ft 427 kts 153°
2026-05-06 09:16 22.08428 88.15203 13968 ft 427 kts 136°
2026-05-06 09:17 22.06716 88.17804 12953 ft 426 kts 119°
2026-05-06 09:17 22.05762 88.20811 11916 ft 424 kts 102°
2026-05-06 09:17 22.05641 88.23955 10961 ft 419 kts 84°
2026-05-06 09:17 22.06332 88.26974 10024 ft 413 kts 68°
2026-05-06 09:18 22.07563 88.29691 9232 ft 403 kts 63°
2026-05-06 09:18 22.08815 88.32339 8935 ft 378 kts 63°
2026-05-06 09:18 22.09965 88.34771 8776 ft 354 kts 63°
2026-05-06 09:18 22.11186 88.36952 8783 ft 325 kts 49°
2026-05-06 09:19 22.12788 88.38489 8790 ft 306 kts 30°
2026-05-06 09:19 22.14712 88.39399 8794 ft 301 kts 12°
2026-05-06 09:19 22.16804 88.39662 8795 ft 298 kts
2026-05-06 09:19 22.18852 88.39762 8790 ft 298 kts
2026-05-06 09:20 22.20958 88.39865 8790 ft 298 kts
2026-05-06 09:20 22.23001 88.39965 8789 ft 298 kts
2026-05-06 09:20 22.25095 88.40068 8792 ft 298 kts
2026-05-06 09:20 22.27162 88.40171 8526 ft 296 kts
2026-05-06 09:21 22.29218 88.40273 8056 ft 298 kts
2026-05-06 09:21 22.31287 88.40375 7620 ft 296 kts
2026-05-06 09:21 22.33372 88.40478 6845 ft 302 kts
2026-05-06 09:21 22.35492 88.40582 6091 ft 306 kts
2026-05-06 09:22 22.37622 88.40697 5338 ft 308 kts
2026-05-06 09:22 22.39710 88.40942 5041 ft 293 kts
2026-05-06 09:22 22.41650 88.41270 4972 ft 271 kts
2026-05-06 09:22 22.43428 88.41613 4975 ft 249 kts
2026-05-06 09:23 22.45090 88.41944 4789 ft 234 kts
2026-05-06 09:23 22.46666 88.42256 4311 ft 232 kts
2026-05-06 09:23 22.48230 88.42622 3571 ft 229 kts 13°
2026-05-06 09:23 22.49798 88.42928 2861 ft 226 kts
2026-05-06 09:24 22.51305 88.43123 2505 ft 208 kts
2026-05-06 09:24 22.52686 88.43284 2221 ft 193 kts
2026-05-06 09:24 22.54008 88.43438 1948 ft 190 kts
2026-05-06 09:24 22.55258 88.43584 1706 ft 170 kts
2026-05-06 09:25 22.56391 88.43716 1493 ft 159 kts
2026-05-06 09:25 22.57479 88.43843 1306 ft 156 kts
2026-05-06 09:25 22.58559 88.43970 1112 ft 157 kts
2026-05-06 09:25 22.59646 88.44097 915 ft 157 kts
2026-05-06 09:26 22.60730 88.44223 725 ft 156 kts
2026-05-06 09:26 22.61804 88.44349 532 ft 156 kts
2026-05-06 09:26 22.62878 88.44474 349 ft 154 kts
2026-05-06 09:26 22.63930 88.44596 135 ft 150 kts
2026-05-06 09:27 22.64957 88.44701 43 ft 140 kts
2026-05-06 09:27 22.65865 88.44827 34 ft 134 kts 11°
2026-05-06 09:27 22.66938 88.44943 219 ft 175 kts
2026-05-06 09:27 22.68246 88.45088 285 ft 191 kts
2026-05-06 09:28 22.69408 88.45671 562 ft 188 kts 44°
2026-05-06 09:28 22.69995 88.46945 726 ft 197 kts 86°
2026-05-06 09:28 22.69541 88.48316 1038 ft 198 kts 135°
2026-05-06 09:28 22.68314 88.48850 1497 ft 195 kts 182°
2026-05-06 09:29 22.66960 88.48500 1688 ft 208 kts 195°
2026-05-06 09:29 22.65657 88.47722 1837 ft 221 kts 218°
2026-05-06 09:29 22.64326 88.46882 1960 ft 224 kts 195°
2026-05-06 09:29 22.62781 88.46705 1975 ft 224 kts 182°
2026-05-06 09:30 22.61282 88.46303 1971 ft 224 kts 207°
2026-05-06 09:30 22.60126 88.45194 1972 ft 226 kts 234°
2026-05-06 09:30 22.59388 88.43696 1984 ft 226 kts 238°
2026-05-06 09:30 22.58202 88.42640 1971 ft 224 kts 198°
2026-05-06 09:31 22.56663 88.42595 1983 ft 224 kts 170°
2026-05-06 09:31 22.55116 88.42822 1981 ft 224 kts 174°
2026-05-06 09:31 22.53566 88.42945 1993 ft 225 kts 176°
2026-05-06 09:31 22.52014 88.43030 1975 ft 222 kts 178°
2026-05-06 09:32 22.50462 88.43099 1971 ft 223 kts 178°
2026-05-06 09:32 22.48913 88.43164 1976 ft 223 kts 178°
2026-05-06 09:32 22.47362 88.43228 1974 ft 223 kts 178°
2026-05-06 09:32 22.45834 88.43291 1970 ft 214 kts 178°
2026-05-06 09:33 22.44367 88.43354 1977 ft 209 kts 177°
2026-05-06 09:33 22.42999 88.43793 1974 ft 208 kts 147°
2026-05-06 09:33 22.42115 88.45011 1979 ft 210 kts 111°
2026-05-06 09:33 22.42072 88.46572 1978 ft 213 kts 74°
2026-05-06 09:34 22.42910 88.47873 1976 ft 215 kts 37°
2026-05-06 09:34 22.44310 88.48381 1973 ft 216 kts 359°
2026-05-06 09:34 22.45721 88.47894 1983 ft 215 kts 333°
2026-05-06 09:34 22.47081 88.47226 1980 ft 214 kts 335°
2026-05-06 09:35 22.48446 88.46573 1977 ft 215 kts 335°
2026-05-06 09:35 22.49816 88.45919 1978 ft 216 kts 336°
2026-05-06 09:35 22.51191 88.45261 1978 ft 216 kts 335°
2026-05-06 09:35 22.52574 88.44601 1988 ft 220 kts 335°
2026-05-06 09:36 22.53917 88.43975 1886 ft 208 kts 341°
2026-05-06 09:36 22.55318 88.43720 1686 ft 197 kts 358°
2026-05-06 09:36 22.56696 88.43776 1468 ft 203 kts
2026-05-06 09:36 22.58096 88.43918 1202 ft 203 kts
2026-05-06 09:37 22.59496 88.44079 946 ft 202 kts
2026-05-06 09:37 22.60888 88.44242 707 ft 200 kts
2026-05-06 09:37 22.62275 88.44403 454 ft 196 kts
2026-05-06 09:37 22.63598 88.44563 200 ft 192 kts
2026-05-06 09:38 22.64924 88.44692 40 ft 174 kts 14°
2026-05-06 09:38 22.66011 88.44808 207 ft 165 kts
2026-05-06 09:38 22.67336 88.44952 278 ft 210 kts
2026-05-06 09:38 22.68852 88.45106 643 ft 225 kts
2026-05-06 09:39 22.70413 88.45255 1241 ft 227 kts
2026-05-06 09:39 22.71998 88.45437 1788 ft 232 kts
2026-05-06 09:39 22.73665 88.45643 1953 ft 250 kts
2026-05-06 09:39 22.75369 88.45872 1969 ft 240 kts
2026-05-06 09:40 22.77026 88.46092 1975 ft 235 kts
2026-05-06 09:40 22.78627 88.46275 1979 ft 234 kts
2026-05-06 09:40 22.81856 88.46712 1975 ft 234 kts
2026-05-06 09:41 22.83475 88.46761 1974 ft 229 kts 354°
2026-05-06 09:41 22.85025 88.46517 1975 ft 222 kts 351°
2026-05-06 09:41 22.86536 88.46611 1967 ft 219 kts 21°
2026-05-06 09:41 22.87595 88.47677 2095 ft 210 kts 75°
2026-05-06 09:42 22.87368 88.49131 2531 ft 198 kts 131°
2026-05-06 09:42 22.86123 88.49718 2577 ft 205 kts 182°
2026-05-06 09:42 22.84830 88.49105 2553 ft 207 kts 216°
2026-05-06 09:42 22.83581 88.48334 2554 ft 208 kts 197°
2026-05-06 09:43 22.82185 88.47955 2144 ft 206 kts 192°
2026-05-06 09:43 22.80791 88.47636 1974 ft 205 kts 191°
2026-05-06 09:43 22.79405 88.47317 1970 ft 203 kts 191°
2026-05-06 09:43 22.78018 88.46996 1974 ft 203 kts 191°
2026-05-06 09:44 22.76635 88.46677 1869 ft 205 kts 192°
2026-05-06 09:44 22.75205 88.46346 1109 ft 207 kts 191°
2026-05-06 09:44 22.73832 88.46028 1090 ft 196 kts 191°
2026-05-06 09:44 22.72611 88.45745 1078 ft 165 kts 191°
2026-05-06 09:45 22.71511 88.45515 630 ft 159 kts 185°
2026-05-06 09:45 22.70461 88.45384 612 ft 153 kts 185°
2026-05-06 09:45 22.69396 88.45216 508 ft 156 kts 184°
2026-05-06 09:45 22.68311 88.45104 303 ft 155 kts 182°
2026-05-06 09:46 22.67242 88.44975 70 ft 151 kts 181°
2026-05-06 09:46 22.66241 88.44875 29 ft 134 kts 186°
2026-05-06 09:46 22.65556 88.44788 29 ft 56 kts 186°
2026-05-06 09:46 22.65305 88.44760 28 ft 32 kts 187°
2026-05-06 09:47 22.65116 88.44739 29 ft 23 kts 185°
2026-05-06 09:47 22.64975 88.44702 27 ft 20 kts 209°
2026-05-06 09:47 22.64858 88.44620 25 ft 21 kts 213°
2026-05-06 09:47 22.64733 88.44533 25 ft 22 kts 214°
2026-05-06 09:48 22.64654 88.44447 28 ft 12 kts 260°
2026-05-06 09:48 22.64663 88.44386 27 ft 6 kts 277°
2026-05-06 09:48 22.64656 88.44366 27 ft 3 kts 232°
2026-05-06 09:48 22.64642 88.44358 27 ft 3 kts 200°
2026-05-06 09:49 22.64634 88.44357 27 ft 0 kts 187°
2026-05-06 09:50 22.64619 88.44355 27 ft 4 kts 188°
2026-05-06 09:50 22.64580 88.44349 27 ft 7 kts 188°
2026-05-06 09:50 22.64544 88.44304 27 ft 10 kts 267°
2026-05-06 09:50 22.64553 88.44215 27 ft 10 kts 278°
2026-05-06 09:51 22.64532 88.44176 27 ft 7 kts 211°
2026-05-06 09:51 22.64512 88.44123 27 ft 7 kts 268°
2026-05-06 09:51 22.64512 88.44090 27 ft 0 kts 270°